• In Deutschland
  • Länderverzeichnis
  • Für 7 Tage
  • Wassertemperatur
  • Satellitenkarten
  • Wetterkarte
  • Widgets
  • user-avatar
    Anmelden

    Stündliche Wetter Lankaran

    Heute, 27 Juni, Dienstag

    Zeit Temperatur Niederschläge Wind Luftdruck Luftfeuchtigkeit
    00:00 +14°C° 0 mm 1 m/S 636 mmHg 90%
    01:00 +13°C° 0 mm 1 m/S 636 mmHg 90%
    02:00 +13°C° 0 mm 1 m/S 636 mmHg 90%
    03:00 +13°C° 0 mm 1 m/S 635 mmHg 89%
    04:00 +14°C° 0 mm 1 m/S 636 mmHg 84%
    05:00 +15°C° 0 mm 1 m/S 636 mmHg 78%
    06:00 +18°C° 0 mm 1 m/S 636 mmHg 73%
    07:00 +19°C° 0 mm 2 m/S 637 mmHg 66%
    08:00 +21°C° 0 mm 2 m/S 637 mmHg 59%
    09:00 +23°C° 0 mm 2 m/S 637 mmHg 51%
    10:00 +25°C° 0 mm 3 m/S 637 mmHg 49%
    11:00 +26°C° 0 mm 3 m/S 637 mmHg 47%
    12:00 +27°C° 0 mm 3 m/S 637 mmHg 44%
    13:00 +27°C° 0 mm 3 m/S 637 mmHg 46%
    14:00 +27°C° 0 mm 3 m/S 636 mmHg 48%
    15:00 +28°C° 0 mm 3 m/S 636 mmHg 50%
    16:00 +27°C° 0 mm 3 m/S 635 mmHg 56%
    17:00 +26°C° 0 mm 3 m/S 635 mmHg 62%
    18:00 +24°C° 0 mm 3 m/S 635 mmHg 68%
    19:00 +23°C° 0 mm 2 m/S 634 mmHg 75%
    20:00 +20°C° 0 mm 2 m/S 634 mmHg 81%
    21:00 +18°C° 0 mm 2 m/S 634 mmHg 88%
    22:00 +18°C° 0 mm 2 m/S 633 mmHg 88%
    23:00 +18°C° 0 mm 1 m/S 633 mmHg 87%

    Morgen, 28 Juni, Mittwoch

    Zeit Temperatur Niederschläge Wind Luftdruck Luftfeuchtigkeit
    00:00 +18°C° 0 mm 1 m/S 633 mmHg 87%
    01:00 +16°C° 0 mm 1 m/S 633 mmHg 88%
    02:00 +16°C° 0 mm 1 m/S 632 mmHg 88%
    03:00 +16°C° 0 mm 1 m/S 632 mmHg 88%
    04:00 +18°C° 0 mm 1 m/S 633 mmHg 84%
    05:00 +20°C° 0 mm 1 m/S 633 mmHg 80%
    06:00 +21°C° 0 mm 1 m/S 634 mmHg 76%
    07:00 +23°C° 0 mm 1 m/S 634 mmHg 68%
    08:00 +25°C° 0 mm 2 m/S 635 mmHg 60%
    09:00 +27°C° 0 mm 2 m/S 635 mmHg 52%
    10:00 +28°C° 0 mm 2 m/S 635 mmHg 49%
    11:00 +29°C° 0 mm 3 m/S 635 mmHg 47%
    12:00 +30°C° 0 mm 3 m/S 635 mmHg 45%
    13:00 +30°C° 0 mm 3 m/S 634 mmHg 45%
    14:00 +30°C° 0 mm 3 m/S 634 mmHg 46%
    15:00 +30°C° 0 mm 3 m/S 634 mmHg 47%
    16:00 +28°C° 0 mm 3 m/S 633 mmHg 52%
    17:00 +27°C° 0 mm 3 m/S 632 mmHg 57%
    18:00 +26°C° 0 mm 2 m/S 632 mmHg 61%
    19:00 +24°C° 0 mm 2 m/S 632 mmHg 68%
    20:00 +22°C° 0 mm 1 m/S 632 mmHg 75%
    21:00 +20°C° 0 mm 1 m/S 632 mmHg 81%
    22:00 +19°C° 0 mm 1 m/S 631 mmHg 82%
    23:00 +19°C° 0 mm 1 m/S 631 mmHg 82%

    übermorgen, 29 Juni, Donnerstag

    Zeit Temperatur Niederschläge Wind Luftdruck Luftfeuchtigkeit
    00:00 +18°C° 0 mm 1 m/S 631 mmHg 82%
    01:00 +18°C° 0 mm 1 m/S 631 mmHg 82%
    02:00 +16°C° 0 mm 1 m/S 631 mmHg 82%
    03:00 +16°C° 0 mm 1 m/S 631 mmHg 82%
    04:00 +18°C° 0 mm 1 m/S 631 mmHg 77%
    05:00 +18°C° 0 mm 2 m/S 632 mmHg 71%
    06:00 +20°C° 0 mm 2 m/S 632 mmHg 66%
    07:00 +21°C° 0 mm 2 m/S 633 mmHg 56%
    08:00 +24°C° 0 mm 3 m/S 634 mmHg 46%
    09:00 +26°C° 0 mm 3 m/S 634 mmHg 36%
    10:00 +27°C° 0 mm 3 m/S 634 mmHg 33%
    11:00 +28°C° 0 mm 3 m/S 634 mmHg 29%
    12:00 +29°C° 0 mm 4 m/S 634 mmHg 25%
    13:00 +29°C° 0 mm 4 m/S 634 mmHg 26%
    14:00 +29°C° 0 mm 4 m/S 633 mmHg 26%
    15:00 +29°C° 0 mm 4 m/S 633 mmHg 26%
    16:00 +27°C° 0 mm 3 m/S 633 mmHg 30%
    17:00 +26°C° 0 mm 3 m/S 632 mmHg 34%
    18:00 +24°C° 0 mm 2 m/S 632 mmHg 39%
    19:00 +21°C° 0 mm 2 m/S 632 mmHg 43%
    20:00 +19°C° 0 mm 2 m/S 632 mmHg 48%
    21:00 +18°C° 0 mm 1 m/S 632 mmHg 52%
    22:00 +18°C° 0 mm 1 m/S 632 mmHg 49%
    23:00 +16°C° 0 mm 1 m/S 631 mmHg 46%

    30 Juni, Freitag

    Zeit Temperatur Niederschläge Wind Luftdruck Luftfeuchtigkeit
    00:00 +15°C° 0 mm 1 m/S 631 mmHg 42%
    01:00 +15°C° 0 mm 1 m/S 631 mmHg 40%
    02:00 +15°C° 0 mm 2 m/S 631 mmHg 39%
    03:00 +14°C° 0 mm 2 m/S 631 mmHg 37%
    04:00 +16°C° 0 mm 2 m/S 631 mmHg 36%
    05:00 +17°C° 0 mm 2 m/S 632 mmHg 36%
    06:00 +19°C° 0 mm 2 m/S 633 mmHg 35%
    07:00 +21°C° 0 mm 2 m/S 633 mmHg 31%
    08:00 +24°C° 0 mm 3 m/S 634 mmHg 26%
    09:00 +25°C° 0 mm 3 m/S 634 mmHg 22%
    10:00 +26°C° 0 mm 4 m/S 634 mmHg 22%
    11:00 +27°C° 0 mm 4 m/S 634 mmHg 21%
    12:00 +28°C° 0 mm 5 m/S 634 mmHg 21%
    13:00 +28°C° 0 mm 5 m/S 634 mmHg 22%
    14:00 +28°C° 0 mm 5 m/S 634 mmHg 23%
    15:00 +28°C° 0 mm 5 m/S 633 mmHg 25%
    16:00 +26°C° 0 mm 4 m/S 633 mmHg 30%
    17:00 +25°C° 0 mm 4 m/S 633 mmHg 35%
    18:00 +22°C° 0 mm 3 m/S 633 mmHg 40%
    19:00 +20°C° 0 mm 3 m/S 633 mmHg 46%
    20:00 +18°C° 0 mm 3 m/S 633 mmHg 53%
    21:00 +15°C° 0 mm 2 m/S 633 mmHg 59%
    22:00 +15°C° 0 mm 2 m/S 633 mmHg 56%
    23:00 +14°C° 0 mm 3 m/S 633 mmHg 54%

    1 Juli, Samstag

    Zeit Temperatur Niederschläge Wind Luftdruck Luftfeuchtigkeit
    00:00 +13°C° 0 mm 3 m/S 633 mmHg 51%
    01:00 +13°C° 0 mm 3 m/S 633 mmHg 52%
    02:00 +13°C° 0 mm 3 m/S 632 mmHg 54%
    03:00 +12°C° 0 mm 3 m/S 632 mmHg 56%
    04:00 +14°C° 0 mm 3 m/S 633 mmHg 52%
    05:00 +16°C° 0 mm 3 m/S 634 mmHg 48%
    06:00 +18°C° 0 mm 3 m/S 634 mmHg 44%
    07:00 +20°C° 0 mm 3 m/S 635 mmHg 39%
    08:00 +22°C° 0 mm 4 m/S 636 mmHg 35%
    09:00 +25°C° 0 mm 4 m/S 636 mmHg 30%
    10:00 +26°C° 0 mm 5 m/S 636 mmHg 29%
    11:00 +27°C° 0 mm 5 m/S 636 mmHg 27%
    12:00 +28°C° 0 mm 6 m/S 636 mmHg 26%
    13:00 +28°C° 0 mm 6 m/S 636 mmHg 29%
    14:00 +27°C° 0 mm 6 m/S 636 mmHg 31%
    15:00 +27°C° 0 mm 6 m/S 635 mmHg 34%
    16:00 +26°C° 0 mm 5 m/S 635 mmHg 38%
    17:00 +23°C° 0 mm 4 m/S 635 mmHg 42%
    18:00 +22°C° 0 mm 4 m/S 635 mmHg 46%
    19:00 +20°C° 0 mm 3 m/S 635 mmHg 54%
    20:00 +18°C° 0 mm 3 m/S 635 mmHg 61%
    21:00 +15°C° 0 mm 2 m/S 634 mmHg 69%
    22:00 +16°C° 0 mm 2 m/S 634 mmHg 65%
    23:00 +16°C° 0 mm 2 m/S 634 mmHg 60%

    2 Juli, Sonntag

    Zeit Temperatur Niederschläge Wind Luftdruck Luftfeuchtigkeit
    00:00 +16°C° 0 mm 2 m/S 634 mmHg 56%
    01:00 +16°C° 0 mm 2 m/S 634 mmHg 56%
    02:00 +15°C° 0 mm 2 m/S 634 mmHg 55%
    03:00 +15°C° 0 mm 2 m/S 634 mmHg 55%
    04:00 +16°C° 0 mm 2 m/S 634 mmHg 54%
    05:00 +18°C° 0 mm 2 m/S 635 mmHg 52%
    06:00 +19°C° 0 mm 2 m/S 635 mmHg 50%
    07:00 +21°C° 0 mm 2 m/S 635 mmHg 43%
    08:00 +24°C° 0 mm 2 m/S 636 mmHg 36%
    09:00 +26°C° 0 mm 3 m/S 636 mmHg 28%
    10:00 +27°C° 0 mm 3 m/S 636 mmHg 27%
    11:00 +29°C° 0 mm 4 m/S 636 mmHg 25%
    12:00 +30°C° 0 mm 4 m/S 636 mmHg 23%
    13:00 +30°C° 0 mm 4 m/S 635 mmHg 23%
    14:00 +30°C° 0 mm 4 m/S 635 mmHg 23%
    15:00 +30°C° 0 mm 4 m/S 635 mmHg 23%
    16:00 +28°C° 0 mm 4 m/S 634 mmHg 27%
    17:00 +27°C° 0 mm 3 m/S 634 mmHg 30%
    18:00 +26°C° 0 mm 3 m/S 633 mmHg 33%
    19:00 +23°C° 0 mm 2 m/S 633 mmHg 38%
    20:00 +20°C° 0 mm 2 m/S 633 mmHg 44%
    21:00 +18°C° 0 mm 2 m/S 632 mmHg 49%
    22:00 +18°C° 0,2 mm 2 m/S 632 mmHg 49%
    23:00 +19°C° 0,2 mm 1 m/S 632 mmHg 49%
    Mehr zeigen